Home > Weather > Paris > Past weeks

Flag for France Past Weather in Paris, Île-de-France, France — Yesterday and Last 2 Weeks

Now
79 °F

Passing clouds.


Feels Like: 80 °F
Forecast: 59 / 81 °F
Wind: 10 mph from North

Location: Villacoublay

Current Time: Jul 23, 2016 at 7:11:41 PM

Latest Report: Jul 23, 2016 at 6:30 PM


Visibility: N/A

Pressure: 30.12 "Hg

Humidity: 48%

Dew Point: 57 °F

Location of ParisLocation

Past Weather in Paris — Graph

°F

Paris Temperature Yesterday

Maximum temperature yesterday: 81 °F (at 5:30 PM)
Minimum temperature yesterday: 61 °F (at 5:30 AM)
Average temperature yesterday: 70 °F

High & Low Weather Summary for the Past Weeks

 TemperatureHumidityPressure
High93 °F (Jul 19, 4:30 PM)100% (Jul 13, 12:00 AM)30.39 "Hg (Jul 13, 12:00 AM)
Low52 °F (Jul 13, 6:30 AM)28% (Jul 19, 4:30 PM)29.86 "Hg (Jul 10, 6:00 PM)
Average69 °F65%30.10 "Hg
* Reported Jul 8 6:00 PM — Jul 23 6:00 PM, Paris, Weather by CustomWeather, © 2016

Note: Actual official high and low records may vary slightly from our data, if they occured in-between our weather recording intervals... More about our weather records

Advertising

Paris Weather History for the Previous 24 Hours

Scroll right to see more
 ConditionsComfort  
Time TempWeatherWind HumidityBarometerVisibility
6:00 PM
Sat, Jul 23
79 °FSunny.12 mph48%30.12 "Hg10 mi
5:30 PM79 °FPassing clouds.10 mph48%30.12 "HgN/A
5:00 PM79 °FScattered clouds.12 mph48%30.12 "HgN/A
4:30 PM79 °FPassing clouds.12 mph51%30.12 "HgN/A
4:00 PM79 °FPassing clouds.12 mph48%30.12 "HgN/A
3:30 PM77 °FScattered clouds.10 mph47%30.12 "HgN/A
3:00 PM77 °FPassing clouds.9 mph51%30.12 "HgN/A
2:30 PM77 °FPassing clouds.12 mph51%30.12 "HgN/A
2:00 PM75 °FPassing clouds.10 mph54%30.15 "HgN/A
1:30 PM75 °FPassing clouds.9 mph54%30.15 "HgN/A
1:00 PM73 °FScattered clouds.12 mph57%30.15 "HgN/A
12:30 PM72 °FPartly sunny.10 mph61%30.15 "HgN/A
12:00 PM72 °FPassing clouds.10 mph61%30.15 "HgN/A
11:30 AM70 °FPassing clouds.10 mph64%30.15 "HgN/A
11:00 AM68 °FPassing clouds.9 mph69%30.15 "HgN/A
10:30 AM68 °FPassing clouds.10 mph64%30.15 "HgN/A
10:00 AM66 °FPassing clouds.10 mph68%30.12 "HgN/A
9:30 AM64 °FSunny.9 mph78%30.12 "Hg10 mi
9:00 AM63 °FPassing clouds.7 mph83%30.12 "HgN/A
8:30 AM61 °FPassing clouds.8 mph88%30.12 "HgN/A
8:00 AM59 °FScattered clouds.10 mph88%30.12 "HgN/A
7:30 AM59 °FPartly sunny.10 mph88%30.09 "HgN/A
7:00 AM59 °FPassing clouds.7 mph88%30.09 "HgN/A
6:30 AM59 °FPassing clouds.6 mph82%30.09 "HgN/A
6:00 AM59 °FClear.7 mph88%30.09 "Hg10 mi
5:30 AM61 °FClear.8 mph77%30.09 "Hg10 mi
5:00 AM61 °FClear.7 mph83%30.09 "Hg10 mi
4:30 AM61 °FClear.7 mph83%30.09 "Hg10 mi
4:00 AM61 °FClear.8 mph77%30.09 "Hg10 mi
3:30 AM63 °FClear.7 mph73%30.09 "Hg10 mi
3:00 AM63 °FClear.8 mph77%30.09 "Hg10 mi
2:30 AM64 °FClear.7 mph73%30.09 "Hg10 mi
2:00 AM64 °FClear.8 mph68%30.09 "Hg10 mi
1:30 AM66 °FClear.7 mph64%30.09 "Hg10 mi
1:00 AM66 °FClear.7 mph68%30.09 "Hg10 mi
12:30 AM68 °FClear.9 mph64%30.09 "Hg10 mi
12:00 AM68 °FPassing clouds.10 mph64%30.09 "HgN/A
11:30 PM
Fri, Jul 22
70 °FClear.10 mph64%30.09 "Hg10 mi
11:00 PM70 °FClear.10 mph69%30.07 "Hg10 mi
10:30 PM72 °FSunny.10 mph69%30.07 "Hg10 mi
10:00 PM73 °FPassing clouds.10 mph61%30.07 "HgN/A
9:30 PM75 °FScattered clouds.6 mph50%30.04 "HgN/A
9:00 PM75 °FSunny.8 mph47%30.04 "Hg10 mi
8:30 PM77 °FSunny.10 mph44%30.04 "Hg10 mi
8:00 PM77 °FPassing clouds.9 mph47%30.04 "HgN/A
7:30 PM77 °FSunny.10 mph44%30.04 "Hg10 mi
7:00 PM77 °FPassing clouds.12 mph47%30.04 "HgN/A
Weather by CustomWeather, © 2016

See weather overviewHow to use our weather pages